| DS18B20 | SHTC3 | ||||||
|---|---|---|---|---|---|---|---|
| ID | Date d/m/Y & Time | data1 สูง | data2 ต่ำ | data3 นอก | temp pcb | hum pcb | Time |
| 10146 | 09/04/2026 04:42:54 | 28.7  | 28.8  | 26.5  | 28.7  | 70.0  | 04:42 |
| 10145 | 09/04/2026 04:38:13 | 28.8  | 28.8  | 26.5  | 28.7  | 69.9  | 04:38 |
| 10144 | 09/04/2026 04:33:31 | 28.7  | 28.9  | 26.6  | 28.6  | 70.0  | 04:33 |
| 10143 | 09/04/2026 04:28:49 | 28.8  | 28.9  | 26.7  | 28.7  | 70.0  | 04:28 |
| 10142 | 09/04/2026 04:24:08 | 28.8  | 28.9  | 26.8  | 28.7  | 70.2  | 04:24 |
| 10141 | 09/04/2026 04:19:26 | 28.8  | 28.9  | 26.6  | 28.8  | 69.9  | 04:19 |
| 10140 | 09/04/2026 04:14:43 | 28.8  | 28.9  | 26.6  | 28.9  | 70.0  | 04:14 |
| 10139 | 09/04/2026 04:10:01 | 28.9  | 28.9  | 26.7  | 28.9  | 70.0  | 04:10 |
| 10138 | 09/04/2026 04:05:19 | 28.9  | 29.0  | 26.7  | 28.8  | 70.0  | 04:05 |
| 10137 | 09/04/2026 04:00:35 | 28.9  | 29.0  | 26.6  | 28.9  | 70.0  | 04:00 |
| 10136 | 09/04/2026 03:55:53 | 28.9  | 29.1  | 27.0  | 28.9  | 70.0  | 03:55 |
| 10135 | 09/04/2026 03:51:11 | 28.9  | 29.1  | 26.8  | 28.9  | 70.0  | 03:51 |
| 10134 | 09/04/2026 03:46:29 | 28.9  | 29.1  | 26.5  | 29.1  | 70.0  | 03:46 |
| 10133 | 09/04/2026 03:41:48 | 29.0  | 29.1  | 26.6  | 28.9  | 70.0  | 03:41 |
| 10132 | 09/04/2026 03:37:06 | 29.0  | 29.1  | 26.8  | 28.9  | 70.0  | 03:37 |
| 10131 | 09/04/2026 03:32:24 | 29.0  | 29.1  | 26.7  | 28.9  | 69.9  | 03:32 |
| 10130 | 09/04/2026 03:27:42 | 29.1  | 29.2  | 26.9  | 29.0  | 69.8  | 03:27 |
| 10129 | 09/04/2026 03:23:01 | 29.1  | 29.2  | 26.7  | 29.1  | 69.9  | 03:23 |
| 10128 | 09/04/2026 03:18:18 | 29.1  | 29.2  | 26.7  | 29.1  | 69.8  | 03:18 |
| 10127 | 09/04/2026 03:13:36 | 29.1  | 29.2  | 26.8  | 29.1  | 69.9  | 03:13 |
| 10126 | 09/04/2026 03:08:52 | 29.1  | 29.2  | 26.8  | 29.1  | 69.8  | 03:08 |
| 10125 | 09/04/2026 03:04:10 | 29.2  | 29.3  | 27.0  | 29.1  | 69.9  | 03:04 |
| 10124 | 09/04/2026 02:59:28 | 29.2  | 29.3  | 27.0  | 29.2  | 70.0  | 02:59 |
| 10123 | 09/04/2026 02:54:47 | 29.2  | 29.4  | 26.9  | 29.1  | 69.8  | 02:54 |